Location: Elkol
(41.7238°N, 110.6124°W)
Time: 17:23:31
(UTC+00:00)

SR - All Passes

Search period start: 26 May 2022 00:00
Search period end: 05 June 2022 00:00
Orbit: 574 x 879 km, 66.7° (Epoch: 25 May)

Date Brightness Start Highest point End Pass type
(mag) Time Alt. Az. Time Alt. Az. Time Alt. Az.
26 May - 10:34:10 10° SE 10:36:12 13° ESE 10:38:19 10° ENE visible
26 May - 12:12:38 10° SW 12:17:23 76° WNW 12:22:39 10° NNE daylight
26 May - 13:57:46 10° WNW 14:00:28 14° NW 14:03:18 10° N daylight
26 May - 19:11:34 10° N 19:15:30 18° NE 19:19:30 10° E daylight
26 May - 20:52:33 10° NNW 20:58:26 84° ENE 21:04:21 10° SSE daylight
26 May - 22:36:29 10° WNW 22:39:48 15° WSW 22:43:06 10° SW daylight
27 May - 11:22:48 10° S 11:27:23 53° ESE 11:32:25 10° NE daylight
27 May - 13:05:51 10° W 13:09:48 24° NW 13:14:04 10° N daylight
27 May - 18:22:48 10° NNE 18:24:43 12° NNE 18:26:39 10° NE daylight
27 May - 20:02:35 10° NNW 20:08:14 47° NE 20:13:55 10° SE daylight
27 May - 21:45:04 10° NW 21:50:07 30° WSW 21:55:09 10° SSW daylight
28 May - 10:33:45 10° SSE 10:37:36 25° ESE 10:41:44 10° NE visible
28 May - 12:14:46 10° WSW 12:19:21 42° NW 12:24:23 10° NNE daylight
28 May - 19:12:52 10° N 19:17:49 28° NE 19:22:50 10° ESE daylight
28 May - 20:54:30 10° NW 21:00:16 57° WSW 21:06:01 10° SSE daylight
29 May - 09:46:28 10° ESE 09:48:02 11° E 09:49:38 10° E visible
29 May - 11:24:21 10° SSW 11:29:08 82° WNW 11:34:26 10° NNE daylight
29 May - 13:09:10 10° WNW 13:12:09 15° NW 13:15:16 10° N daylight
29 May - 18:23:25 10° N 18:27:12 17° NE 18:31:02 10° E daylight
29 May - 20:04:19 10° NNW 20:10:13 79° ENE 20:16:07 10° SSE daylight
29 May - 21:48:01 10° WNW 21:51:38 17° WSW 21:55:15 10° SW daylight
30 May - 10:34:36 10° S 10:39:10 48° ESE 10:44:10 10° NE visible
30 May - 12:17:24 10° WSW 12:21:30 25° NW 12:25:55 10° N daylight
30 May - 17:34:51 10° NNE 17:36:22 11° NNE 17:37:54 10° NE daylight
30 May - 19:14:23 10° NNW 19:19:59 44° NE 19:25:36 10° SE daylight
30 May - 20:56:45 10° NW 21:01:56 33° WSW 21:07:06 10° S daylight
31 May - 09:45:41 10° SSE 09:49:25 23° ESE 09:53:24 10° NE visible
31 May - 11:26:25 10° SW 11:31:04 45° NW 11:36:12 10° NNE daylight
31 May - 13:14:08 10° NW 13:14:39 10° NNW 13:15:11 10° NNW daylight
31 May - 18:24:41 10° N 18:29:32 26° NE 18:34:27 10° ESE daylight
31 May - 20:06:14 10° NW 20:12:03 62° WSW 20:17:50 10° SSE daylight
01 Jun - 08:59:05 10° ESE 08:59:51 10° E 09:00:38 10° E visible
01 Jun - 10:36:04 10° SSW 10:40:53 89° WNW 10:46:13 10° NNE visible
01 Jun - 12:20:37 10° WNW 12:23:49 16° NW 12:27:11 10° N daylight
01 Jun - 17:35:17 10° N 17:38:53 16° NE 17:42:31 10° ENE daylight
01 Jun - 19:16:05 10° NNW 19:21:58 73° ENE 19:27:52 10° SE daylight
01 Jun - 20:59:33 10° WNW 21:03:28 18° WSW 21:07:21 10° SSW daylight
02 Jun - 09:46:24 10° S 09:50:56 44° ESE 09:55:54 10° NE visible
02 Jun - 11:28:57 10° WSW 11:33:11 27° NW 11:37:46 10° NNE daylight
02 Jun - 16:47:05 10° NNE 16:48:01 10° NNE 16:48:59 10° NE daylight
02 Jun - 18:26:10 10° NNW 18:31:42 41° NE 18:37:16 10° ESE daylight
02 Jun - 20:08:26 10° NW 20:13:44 35° WSW 20:19:00 10° S daylight
03 Jun - 08:57:37 10° SSE 09:01:12 21° ESE 09:05:02 10° ENE visible
03 Jun - 10:38:03 10° SW 10:42:47 50° NW 10:48:00 10° NNE visible
03 Jun - 12:24:55 10° NW 12:26:18 11° NNW 12:27:42 10° NNW daylight
03 Jun - 17:36:30 10° N 17:41:15 25° NE 17:46:01 10° E daylight
03 Jun - 19:17:58 10° NW 19:23:49 67° WSW 19:29:38 10° SSE daylight
04 Jun - 09:47:47 10° SSW 09:52:37 84° ESE 09:57:58 10° NNE visible
04 Jun - 11:32:04 10° W 11:35:29 18° NW 11:39:05 10° N daylight
04 Jun - 16:47:10 10° N 16:50:34 16° NE 16:54:00 10° ENE daylight
04 Jun - 18:27:50 10° NNW 18:33:43 68° ENE 18:39:35 10° SE daylight
04 Jun - 20:11:07 10° WNW 20:15:17 20° WSW 20:19:24 10° SSW daylight
